Tucson Davis Monthan, AZ

8:31 PM MST on June 24, 2018 (GMT -0700)
Davis-Monthan Air Force Base

Weather History for KDMA - December, 2017

Change the Weather History Date:

Tuesday, December 5, 2017

  Actual Average Record
Temperature  
Mean Temperature 57 °F -  
Max Temperature 62 °F 67 °F 80 °F (2003)
Min Temperature 52 °F 41 °F 23 °F (1948)
Degree Days  
Heating Degree Days 8    
Growing Degree Days 7 (Base 50)    
Moisture  
Dew Point 35 °F    
Average Humidity 45    
Maximum Humidity 65    
Minimum Humidity 28    
Precipitation  
Precipitation 0.00 in - - ()
Sea Level Pressure  
Sea Level Pressure 30.01 in    
Wind  
Wind Speed 4 mph (SSE)    
Max Wind Speed 15 mph    
Max Gust Speed -    
Visibility 10 miles    
Events Rain    
Averages and records for this station are not official NWS values.
T = Trace of Precipitation, MM = Missing Value Source: NWS Daily Summary

Daily Weather History Graph

Daily Weather History Graph

Search for Another Location

Airport or City:

Astronomy

Dec. 05, 2017 Rise Set
Actual Time 7:10 AM MST 5:18 PM MST
Civil Twilight 6:43 AM MST 5:45 PM MST
Nautical Twilight 6:12 AM MST 6:15 PM MST
Astronomical Twilight 5:43 AM MST 6:45 PM MST
Moon 7:51 PM MST (12/5) 9:08 AM MST (12/5)
Length of Visible Light 11h 02m
Length of Day
10h 08m
Waning Gibbous, 93% of the Moon is Illuminated
Dec 5
Waning Gibbous
Dec 10
Last Quarter
Dec 17
New
Dec 26
First Quarter
Jan 1
Full

Hourly Weather History & Observations

Time (MST) Temp. Dew Point Humidity Pressure Visibility Wind Dir Wind Speed Gust Speed Precip Events Conditions
12:58 AM 55.9 °F 31.3 °F 39% 29.94 in 10.0 mi Calm Calm - N/A   Mostly Cloudy
1:58 AM 54.1 °F 30.4 °F 40% 29.94 in 10.0 mi Calm Calm - N/A   Partly Cloudy
2:58 AM 52.5 °F 30.0 °F 42% 29.94 in 10.0 mi East 3.5 mph - N/A   Mostly Cloudy
3:58 AM 52.2 °F 30.4 °F 43% 29.95 in 10.0 mi South 3.5 mph - N/A   Clear
4:58 AM 52.2 °F 30.9 °F 44% 29.95 in 10.0 mi SSW 3.5 mph - N/A   Mostly Cloudy
5:58 AM 52.7 °F 32.0 °F 45% 29.95 in 10.0 mi SE 4.6 mph - N/A   Scattered Clouds
6:58 AM 53.4 °F 29.7 °F 40% 29.97 in 10.0 mi SSW 5.8 mph - N/A   Clear
7:58 AM 53.2 °F 28.9 °F 39% 30.00 in 10.0 mi NW 3.5 mph - N/A   Scattered Clouds
8:58 AM 55.4 °F 29.5 °F 37% 30.04 in 10.0 mi NNE 3.5 mph - N/A   Partly Cloudy
9:58 AM 57.2 °F 29.8 °F 35% 30.04 in 10.0 mi West 3.5 mph - N/A   Clear
10:58 AM 60.3 °F 31.8 °F 34% 30.02 in 10.0 mi ESE 8.1 mph - N/A   Partly Cloudy
11:58 AM 62.8 °F 33.3 °F 33% 30.01 in 10.0 mi WNW 10.4 mph - N/A   Mostly Cloudy
12:58 PM 59.0 °F 25.9 °F 28% 30.01 in 10.0 mi NW 9.2 mph - N/A   Mostly Cloudy
1:58 PM 61.2 °F 31.1 °F 32% 30.00 in 10.0 mi NW 6.9 mph - N/A   Partly Cloudy
2:54 PM 62.6 °F 32.0 °F 32% 29.99 in 10.0 mi NE 5.8 mph - N/A Rain Light Rain
2:58 PM 61.7 °F 33.1 °F 34% 30.00 in 10.0 mi NE 4.6 mph - 0.00 in Rain Light Rain
3:58 PM 57.9 °F 41.4 °F 54% 30.03 in 9.0 mi ESE 9.2 mph - 0.00 in Rain Light Rain
4:04 PM 57.2 °F 42.8 °F 59% 30.02 in 10.0 mi East 15.0 mph - N/A   Mostly Cloudy
4:58 PM 58.8 °F 47.1 °F 65% 30.01 in 10.0 mi East 13.8 mph - 0.00 in   Overcast
5:58 PM 59.4 °F 44.6 °F 58% 30.01 in 10.0 mi East 10.4 mph - N/A   Overcast
6:31 PM 59.0 °F 44.6 °F 59% 30.02 in 10.0 mi SE 12.7 mph - N/A   Overcast
6:58 PM 59.4 °F 45.0 °F 59% 30.03 in 10.0 mi South 10.4 mph - N/A   Overcast
7:58 PM 59.5 °F 43.9 °F 56% 30.06 in 10.0 mi SSE 4.6 mph - N/A   Overcast
8:11 PM 59.0 °F 44.6 °F 59% 30.06 in 10.0 mi Calm Calm - N/A   Light Drizzle
8:16 PM 59.0 °F 42.8 °F 55% 30.06 in 10.0 mi Calm Calm - N/A   Overcast
8:58 PM 58.5 °F 44.2 °F 59% 30.05 in 10.0 mi West 3.5 mph - 0.00 in   Overcast
9:58 PM 54.0 °F 29.5 °F 39% 30.07 in 10.0 mi WNW 4.6 mph - N/A   Overcast
10:58 PM 53.2 °F 27.7 °F 37% 30.06 in 10.0 mi West 6.9 mph - N/A   Overcast
11:58 PM 52.7 °F 25.9 °F 35% 30.05 in 10.0 mi SW 4.6 mph - N/A   Mostly Cloudy